Marion, IN

3:22 PM EDT on May 23, 2017 (GMT -0400)
Marion Municipal

Weather History for KMZZ - April, 2012

Change the Weather History Date:

Monday, April 9, 2012

  Actual Average (KMIE) Record (KMIE)
Temperature  
Mean Temperature 50 °F -  
Max Temperature 63 °F 58 °F 83 °F (2013)
Min Temperature 37 °F 38 °F 17 °F (1997)
Degree Days  
Heating Degree Days 15    
Moisture  
Dew Point 22 °F    
Average Humidity 36    
Maximum Humidity 72    
Minimum Humidity 14    
Precipitation  
Precipitation 0.00 in - - ()
Sea Level Pressure  
Sea Level Pressure 29.98 in    
Wind  
Wind Speed 8 mph (NW)    
Max Wind Speed 31 mph    
Max Gust Speed 39 mph    
Visibility 9 miles    
Events      
Averages and records for this station are not official NWS values.
T = Trace of Precipitation, MM = Missing Value Source: NWS Daily Summary

Daily Weather History Graph

Daily Weather History Graph

Search for Another Location

Airport or City:

Trip Planner

Search our weather history database for the weather conditions in past years. The results will help you decide how hot, cold, wet, or windy it might be!

Date:

Astronomy

Apr. 09, 2012 Rise Set
Actual Time 7:12 AM EDT 8:16 PM EDT
Civil Twilight 6:44 AM EDT 8:44 PM EDT
Nautical Twilight 6:11 AM EDT 9:17 PM EDT
Astronomical Twilight 5:36 AM EDT 9:52 PM EDT
Moon No Moon Rise 8:58 AM EDT (4/9)
Length of Visible Light 13h 59m
Length of Day
13h 03m
Waning Gibbous, 88% of the Moon is Illuminated
Apr 9
Waning Gibbous
Apr 13
Last Quarter
Apr 21
New
Apr 29
First Quarter
May 5
Full

Hourly Weather History & Observations

Time (EDT) Temp. Windchill Dew Point Humidity Pressure Visibility Wind Dir Wind Speed Gust Speed Precip Events Conditions
12:15 AM 50.5 °F - 22.1 °F 33% 30.10 in 10.0 mi NNW 3.5 mph - N/A   Clear
12:35 AM 51.3 °F - 21.9 °F 32% 30.10 in 10.0 mi Calm Calm - N/A   Clear
12:55 AM 48.4 °F - 23.4 °F 37% 30.10 in 10.0 mi North 5.8 mph - N/A   Clear
1:15 AM 48.0 °F - 25.7 °F 42% 30.09 in 10.0 mi NNE 3.5 mph - N/A   Clear
1:35 AM 48.6 °F - 27.3 °F 44% 30.09 in 10.0 mi Calm Calm - N/A   Clear
1:55 AM 46.9 °F - 27.9 °F 48% 30.08 in 10.0 mi Calm Calm - N/A   Clear
2:55 AM 41.2 °F - 30.0 °F 65% 30.07 in 10.0 mi Calm Calm - N/A   Clear
3:15 AM 40.3 °F - 29.5 °F 65% 30.07 in 10.0 mi Calm Calm - N/A   Clear
3:35 AM 41.7 °F - 28.4 °F 59% 30.06 in 7.0 mi Calm Calm - N/A   Clear
3:55 AM 40.5 °F - 28.8 °F 63% 30.05 in 10.0 mi Calm Calm - N/A   Clear
4:15 AM 39.0 °F - 29.5 °F 69% 30.04 in 10.0 mi Calm Calm - N/A   Scattered Clouds
4:35 AM 38.3 °F 35.9 °F 30.0 °F 72% 30.04 in 5.0 mi South 3.5 mph - N/A   Haze
4:55 AM 37.0 °F 34.5 °F 28.4 °F 71% 30.03 in 10.0 mi SSW 3.5 mph - N/A   Mostly Cloudy
5:15 AM 38.3 °F - 29.3 °F 70% 30.03 in 10.0 mi Calm Calm - N/A   Overcast
5:35 AM 39.9 °F - 29.5 °F 66% 30.01 in 10.0 mi Calm Calm - N/A   Overcast
5:55 AM 40.6 °F 38.6 °F 31.8 °F 71% 30.01 in 10.0 mi NE 3.5 mph - N/A   Overcast
6:15 AM 41.5 °F - 32.2 °F 69% 30.01 in 5.0 mi Calm Calm - N/A   Haze
6:35 AM 41.9 °F 39.0 °F 32.2 °F 68% 30.02 in 10.0 mi NNE 4.6 mph - N/A   Overcast
6:55 AM 42.1 °F 40.2 °F 32.4 °F 68% 30.00 in 10.0 mi ESE 3.5 mph - N/A   Overcast
7:15 AM 42.6 °F 39.9 °F 33.1 °F 69% 30.01 in 10.0 mi SSE 4.6 mph - N/A   Overcast
7:35 AM 43.7 °F 42.1 °F 32.9 °F 66% 30.01 in 10.0 mi SSE 3.5 mph - N/A   Overcast
7:55 AM 44.1 °F 40.8 °F 32.7 °F 64% 30.00 in 5.0 mi South 5.8 mph - N/A   Unknown
8:15 AM 44.8 °F 42.4 °F 32.0 °F 61% 30.00 in 10.0 mi South 4.6 mph - N/A   Overcast
8:35 AM 45.3 °F - 32.0 °F 60% 30.00 in 10.0 mi Calm Calm - N/A   Overcast
8:55 AM 46.4 °F 45.2 °F 31.8 °F 57% 29.99 in 7.0 mi East 3.5 mph - N/A   Overcast
9:15 AM 47.7 °F - 31.8 °F 54% 29.99 in 10.0 mi Calm Calm - N/A   Scattered Clouds
9:35 AM 49.6 °F - 30.2 °F 47% 29.99 in 10.0 mi WSW 3.5 mph - N/A   Scattered Clouds
9:55 AM 51.3 °F - 28.4 °F 41% 29.98 in 7.0 mi NNW 3.5 mph - N/A   Scattered Clouds
10:15 AM 52.7 °F - 27.9 °F 38% 29.98 in 7.0 mi WNW 3.5 mph - N/A   Scattered Clouds
10:35 AM 54.5 °F - 27.3 °F 35% 29.98 in 10.0 mi West 10.4 mph - N/A   Scattered Clouds
10:55 AM 56.3 °F - 27.5 °F 33% 29.98 in 10.0 mi NW 11.5 mph - N/A   Clear
11:15 AM 57.7 °F - 28.4 °F 33% 29.98 in 7.0 mi NW 10.4 mph - N/A   Clear
11:35 AM 59.0 °F - 28.9 °F 32% 29.98 in 7.0 mi WNW 19.6 mph 26.5 mph N/A   Clear
11:55 AM 60.3 °F - 27.1 °F 28% 29.98 in 10.0 mi NNW 15.0 mph 26.5 mph N/A   Clear
12:15 PM 60.8 °F - 25.9 °F 26% 29.97 in 10.0 mi NW 15.0 mph 20.7 mph N/A   Scattered Clouds
12:35 PM 60.4 °F - 24.6 °F 25% 29.98 in 7.0 mi WNW 19.6 mph 36.8 mph N/A   Scattered Clouds
12:55 PM 61.7 °F - 21.6 °F 21% 29.98 in 7.0 mi NW 19.6 mph 33.4 mph N/A   Scattered Clouds
1:15 PM 61.7 °F - 18.5 °F 19% 29.97 in 10.0 mi WNW 23.0 mph 31.1 mph N/A   Scattered Clouds
1:35 PM 62.4 °F - 15.1 °F 16% 29.97 in 10.0 mi NW 25.3 mph 32.2 mph N/A   Clear
1:55 PM 62.2 °F - 14.2 °F 15% 29.97 in 7.0 mi WNW 23.0 mph 36.8 mph N/A   Scattered Clouds
2:15 PM 62.2 °F - 14.0 °F 15% 29.96 in 10.0 mi NW 28.8 mph 38.0 mph N/A   Scattered Clouds
2:35 PM 62.8 °F - 13.1 °F 14% 29.96 in 10.0 mi NW 24.2 mph 35.7 mph N/A   Clear
2:55 PM 62.8 °F - 13.1 °F 14% 29.96 in 10.0 mi WNW 31.1 mph 39.1 mph N/A   Scattered Clouds
3:35 PM 63.0 °F - 11.8 °F 14% 29.95 in 10.0 mi WNW 26.5 mph 38.0 mph N/A   Clear
3:55 PM 63.0 °F - 12.6 °F 14% 29.94 in 7.0 mi West 23.0 mph 33.4 mph N/A   Clear
4:15 PM 63.5 °F - 12.7 °F 14% 29.94 in 10.0 mi WNW 19.6 mph 38.0 mph N/A   Scattered Clouds
4:35 PM 63.0 °F - 12.6 °F 14% 29.93 in 10.0 mi WNW 20.7 mph 33.4 mph N/A   Scattered Clouds
4:55 PM 63.1 °F - 12.4 °F 14% 29.93 in 10.0 mi NW 23.0 mph 33.4 mph N/A   Scattered Clouds
5:15 PM 63.3 °F - 12.6 °F 14% 29.92 in 7.0 mi West 27.6 mph 34.5 mph N/A   Scattered Clouds
5:35 PM 62.4 °F - 12.0 °F 14% 29.92 in 7.0 mi WNW 24.2 mph 32.2 mph N/A   Scattered Clouds
5:55 PM 63.0 °F - 12.4 °F 14% 29.92 in 10.0 mi NW 21.9 mph 28.8 mph N/A   Scattered Clouds
6:35 PM 62.1 °F - 13.1 °F 15% 29.91 in 10.0 mi WNW 24.2 mph 34.5 mph N/A   Scattered Clouds
6:55 PM 61.3 °F - 13.8 °F 16% 29.91 in 7.0 mi NW 21.9 mph 28.8 mph N/A   Scattered Clouds
7:15 PM 60.8 °F - 14.5 °F 16% 29.91 in 10.0 mi NW 17.3 mph 26.5 mph N/A   Scattered Clouds
7:35 PM 59.9 °F - 14.5 °F 17% 29.91 in 10.0 mi NW 19.6 mph 27.6 mph N/A   Scattered Clouds
7:55 PM 58.8 °F - 14.2 °F 17% 29.91 in 7.0 mi NW 18.4 mph 25.3 mph N/A   Clear
8:15 PM 57.9 °F - 14.5 °F 18% 29.91 in 10.0 mi WNW 16.1 mph 23.0 mph N/A   Scattered Clouds
8:35 PM 56.8 °F - 15.4 °F 20% 29.91 in 10.0 mi NW 15.0 mph 23.0 mph N/A   Scattered Clouds
8:55 PM 55.9 °F - 15.8 °F 21% 29.91 in 10.0 mi WNW 13.8 mph 19.6 mph N/A   Clear
9:15 PM 55.4 °F - 16.2 °F 21% 29.92 in 10.0 mi WNW 16.1 mph 20.7 mph N/A   Clear
9:35 PM 54.9 °F - 16.3 °F 22% 29.93 in 10.0 mi WNW 15.0 mph - N/A   Clear
9:55 PM 54.1 °F - 16.5 °F 23% 29.93 in 10.0 mi WNW 11.5 mph - N/A   Clear
10:15 PM 53.2 °F - 16.5 °F 24% 29.94 in 10.0 mi WNW 13.8 mph 20.7 mph N/A   Clear
10:35 PM 52.9 °F - 16.0 °F 23% 29.94 in 10.0 mi WNW 13.8 mph 18.4 mph N/A   Clear
10:55 PM 51.4 °F - 16.3 °F 25% 29.94 in 10.0 mi NW 8.1 mph - N/A   Clear
11:15 PM 48.9 °F - 16.9 °F 28% 29.94 in 10.0 mi NW 6.9 mph - N/A   Clear
11:35 PM 46.6 °F - 17.2 °F 31% 29.94 in 10.0 mi NW 5.8 mph - N/A   Clear
11:55 PM 45.9 °F 43.6 °F 17.4 °F 32% 29.94 in 10.0 mi NW 4.6 mph - N/A   Clear